When you browse on this site, cookies collect data to enhance your experience and personalize the content and advertising you see.
Visit our Privacy Policy to learn more. By continuing to use the site, you agree to this use of cookies and data.
  • In Italy
  • List of Countries
  • For 7 days
  • Water Temperature
  • Satellite Maps
  • Weather Map
  • Weather Widgets
  • user-avatar
    Login

    Hourly Weather Yalta

    Today, 24 April, Wednesday

    Time Temperature Precipitation Wind Pressure Humidity
    00:00 +12°C° 0 mm 2 mps 747 mmHg 61%
    01:00 +12°C° 0 mm 2 mps 747 mmHg 62%
    02:00 +10°C° 0 mm 2 mps 747 mmHg 64%
    03:00 +9°C° 0 mm 2 mps 748 mmHg 65%
    04:00 +9°C° 0 mm 2 mps 748 mmHg 67%
    05:00 +9°C° 0 mm 2 mps 748 mmHg 68%
    06:00 +9°C° 0 mm 2 mps 748 mmHg 70%
    07:00 +10°C° 0 mm 3 mps 748 mmHg 65%
    08:00 +12°C° 0 mm 3 mps 748 mmHg 59%
    09:00 +14°C° 0 mm 3 mps 748 mmHg 54%
    10:00 +16°C° 0 mm 3 mps 748 mmHg 50%
    11:00 +18°C° 0 mm 3 mps 748 mmHg 45%
    12:00 +19°C° 0 mm 3 mps 748 mmHg 40%
    13:00 +20°C° 0 mm 3 mps 748 mmHg 39%
    14:00 +20°C° 0 mm 3 mps 748 mmHg 37%
    15:00 +21°C° 0 mm 3 mps 748 mmHg 36%
    16:00 +21°C° 0 mm 3 mps 748 mmHg 37%
    17:00 +21°C° 0 mm 3 mps 747 mmHg 39%
    18:00 +20°C° 0 mm 3 mps 747 mmHg 40%
    19:00 +19°C° 0 mm 2 mps 747 mmHg 43%
    20:00 +17°C° 0 mm 2 mps 747 mmHg 47%
    21:00 +16°C° 0 mm 2 mps 747 mmHg 50%
    22:00 +15°C° 0 mm 2 mps 747 mmHg 51%
    23:00 +14°C° 0 mm 2 mps 747 mmHg 53%

    Tomorrow, 25 April, Thursday

    Time Temperature Precipitation Wind Pressure Humidity
    00:00 +14°C° 0 mm 2 mps 747 mmHg 54%
    01:00 +13°C° 0 mm 2 mps 747 mmHg 56%
    02:00 +13°C° 0 mm 2 mps 747 mmHg 58%
    03:00 +12°C° 0 mm 2 mps 748 mmHg 60%
    04:00 +12°C° 0 mm 2 mps 748 mmHg 62%
    05:00 +12°C° 0 mm 2 mps 748 mmHg 63%
    06:00 +10°C° 0 mm 2 mps 748 mmHg 65%
    07:00 +13°C° 0 mm 2 mps 748 mmHg 60%
    08:00 +15°C° 0 mm 2 mps 748 mmHg 55%
    09:00 +17°C° 0 mm 2 mps 748 mmHg 49%
    10:00 +18°C° 0 mm 2 mps 748 mmHg 45%
    11:00 +20°C° 0 mm 3 mps 748 mmHg 41%
    12:00 +21°C° 0 mm 3 mps 748 mmHg 36%
    13:00 +22°C° 0 mm 3 mps 747 mmHg 35%
    14:00 +23°C° 0 mm 2 mps 747 mmHg 34%
    15:00 +24°C° 0 mm 2 mps 747 mmHg 33%
    16:00 +23°C° 0 mm 2 mps 746 mmHg 35%
    17:00 +23°C° 0 mm 2 mps 746 mmHg 36%
    18:00 +23°C° 0 mm 1 mps 746 mmHg 38%
    19:00 +22°C° 0 mm 1 mps 746 mmHg 42%
    20:00 +20°C° 0 mm 1 mps 746 mmHg 45%
    21:00 +19°C° 0 mm 1 mps 746 mmHg 49%
    22:00 +19°C° 0 mm 1 mps 746 mmHg 50%
    23:00 +18°C° 0 mm 1 mps 746 mmHg 50%

    Day after tomorrow, 26 April, Friday

    Time Temperature Precipitation Wind Pressure Humidity
    00:00 +18°C° 0 mm 1 mps 746 mmHg 51%
    01:00 +16°C° 0.2 mm 1 mps 746 mmHg 54%
    02:00 +16°C° 0.2 mm 1 mps 746 mmHg 58%
    03:00 +15°C° 0.2 mm 1 mps 745 mmHg 61%
    04:00 +15°C° 0.2 mm 1 mps 745 mmHg 63%
    05:00 +14°C° 0.2 mm 1 mps 745 mmHg 65%
    06:00 +14°C° 0.2 mm 1 mps 745 mmHg 68%
    07:00 +15°C° 0.4 mm 1 mps 745 mmHg 63%
    08:00 +16°C° 0.4 mm 1 mps 745 mmHg 59%
    09:00 +18°C° 0.4 mm 1 mps 746 mmHg 55%
    10:00 +19°C° 0.1 mm 1 mps 745 mmHg 51%
    11:00 +20°C° 0.1 mm 2 mps 745 mmHg 48%
    12:00 +21°C° 0.1 mm 3 mps 745 mmHg 44%
    13:00 +21°C° 0.1 mm 2 mps 745 mmHg 46%
    14:00 +20°C° 0.1 mm 2 mps 745 mmHg 47%
    15:00 +20°C° 0.1 mm 2 mps 744 mmHg 49%
    16:00 +20°C° 0.1 mm 2 mps 744 mmHg 50%
    17:00 +20°C° 0.1 mm 2 mps 744 mmHg 51%
    18:00 +20°C° 0.1 mm 2 mps 744 mmHg 52%
    19:00 +19°C° 1.1 mm 1 mps 743 mmHg 58%
    20:00 +18°C° 1.1 mm 1 mps 743 mmHg 64%
    21:00 +16°C° 1.1 mm 1 mps 743 mmHg 70%
    22:00 +15°C° 0.1 mm 1 mps 743 mmHg 72%
    23:00 +14°C° 0.1 mm 1 mps 743 mmHg 75%

    27 April, Saturday

    Time Temperature Precipitation Wind Pressure Humidity
    00:00 +14°C° 0.1 mm 1 mps 742 mmHg 77%
    01:00 +14°C° 0.1 mm 2 mps 742 mmHg 77%
    02:00 +13°C° 0.1 mm 2 mps 742 mmHg 76%
    03:00 +13°C° 0.1 mm 2 mps 742 mmHg 75%
    04:00 +13°C° 0.1 mm 2 mps 742 mmHg 76%
    05:00 +13°C° 0.1 mm 2 mps 741 mmHg 77%
    06:00 +12°C° 0.1 mm 3 mps 741 mmHg 78%
    07:00 +13°C° 0 mm 3 mps 741 mmHg 73%
    08:00 +14°C° 0 mm 3 mps 741 mmHg 67%
    09:00 +17°C° 0 mm 3 mps 741 mmHg 62%
    10:00 +18°C° 0 mm 3 mps 741 mmHg 55%
    11:00 +19°C° 0 mm 4 mps 740 mmHg 47%
    12:00 +21°C° 0 mm 4 mps 740 mmHg 40%
    13:00 +20°C° 0 mm 3 mps 740 mmHg 44%
    14:00 +20°C° 0 mm 3 mps 739 mmHg 47%
    15:00 +19°C° 0 mm 2 mps 739 mmHg 51%
    16:00 +19°C° 0 mm 2 mps 739 mmHg 53%
    17:00 +19°C° 0 mm 2 mps 738 mmHg 55%
    18:00 +19°C° 0 mm 2 mps 738 mmHg 58%
    19:00 +17°C° 0.4 mm 2 mps 738 mmHg 62%
    20:00 +16°C° 0.4 mm 2 mps 738 mmHg 66%
    21:00 +15°C° 0.4 mm 2 mps 738 mmHg 71%
    22:00 +15°C° 0.2 mm 2 mps 738 mmHg 73%
    23:00 +14°C° 0.2 mm 2 mps 738 mmHg 75%

    28 April, Sunday

    Time Temperature Precipitation Wind Pressure Humidity
    00:00 +14°C° 0.2 mm 1 mps 738 mmHg 77%
    01:00 +13°C° 0.2 mm 1 mps 737 mmHg 79%
    02:00 +13°C° 0.2 mm 1 mps 737 mmHg 81%
    03:00 +13°C° 0.2 mm 1 mps 737 mmHg 84%
    04:00 +13°C° 0.6 mm 1 mps 737 mmHg 86%
    05:00 +13°C° 0.6 mm 1 mps 737 mmHg 88%
    06:00 +13°C° 0.6 mm 1 mps 737 mmHg 90%
    07:00 +13°C° 0.1 mm 1 mps 737 mmHg 87%
    08:00 +14°C° 0.1 mm 2 mps 737 mmHg 84%
    09:00 +15°C° 0.1 mm 2 mps 737 mmHg 81%
    10:00 +16°C° 0.5 mm 2 mps 738 mmHg 77%
    11:00 +16°C° 0.5 mm 2 mps 738 mmHg 72%
    12:00 +17°C° 0.5 mm 2 mps 738 mmHg 68%
    13:00 +17°C° 0.9 mm 3 mps 738 mmHg 71%
    14:00 +15°C° 0.9 mm 5 mps 739 mmHg 73%
    15:00 +14°C° 0.9 mm 6 mps 739 mmHg 76%
    16:00 +14°C° 0.1 mm 6 mps 739 mmHg 74%
    17:00 +14°C° 0.1 mm 6 mps 739 mmHg 71%
    18:00 +13°C° 0.1 mm 6 mps 739 mmHg 69%
    19:00 +11°C° 0 mm 6 mps 740 mmHg 70%
    20:00 +10°C° 0 mm 5 mps 740 mmHg 70%
    21:00 +9°C° 0 mm 5 mps 741 mmHg 70%
    22:00 +8°C° 0 mm 5 mps 741 mmHg 67%
    23:00 +7°C° 0 mm 5 mps 741 mmHg 65%

    29 April, Monday

    Time Temperature Precipitation Wind Pressure Humidity
    00:00 +5°C° 0 mm 6 mps 742 mmHg 62%
    01:00 +6°C° 0 mm 5 mps 742 mmHg 64%
    02:00 +5°C° 0 mm 5 mps 742 mmHg 65%
    03:00 +3°C° 0 mm 5 mps 742 mmHg 67%
    04:00 +3°C° 0 mm 5 mps 743 mmHg 66%
    05:00 +2°C° 0 mm 5 mps 743 mmHg 65%
    06:00 +2°C° 0 mm 5 mps 744 mmHg 64%
    07:00 +3°C° 0 mm 6 mps 744 mmHg 59%
    08:00 +4°C° 0 mm 6 mps 744 mmHg 54%
    09:00 +5°C° 0 mm 7 mps 745 mmHg 49%
    10:00 +6°C° 0 mm 7 mps 745 mmHg 46%
    11:00 +8°C° 0 mm 6 mps 745 mmHg 43%
    12:00 +9°C° 0 mm 6 mps 745 mmHg 41%
    13:00 +9°C° 0 mm 6 mps 745 mmHg 40%
    14:00 +9°C° 0 mm 6 mps 745 mmHg 40%
    15:00 +10°C° 0 mm 5 mps 745 mmHg 40%
    16:00 +10°C° 0 mm 5 mps 745 mmHg 41%
    17:00 +9°C° 0 mm 5 mps 744 mmHg 42%
    18:00 +9°C° 0 mm 5 mps 744 mmHg 43%
    19:00 +8°C° 0 mm 4 mps 745 mmHg 48%
    20:00 +7°C° 0 mm 3 mps 745 mmHg 52%
    21:00 +5°C° 0 mm 3 mps 745 mmHg 57%
    22:00 +5°C° 0 mm 3 mps 745 mmHg 57%
    23:00 +4°C° 0 mm 3 mps 746 mmHg 58%
    Show more